Location: Ferchesar
(52.6477°N, 12.4298°E)
Time: 13:36:28
(UTC+02:00)

Transit 4A - Pass Details

Date: 04 March 2021
Orbit: 869 x 975 km, 66.8° (Epoch: 16 April)

Event Time Altitude Azimuth Distance (km) Brightness Sun altitude
Rises 19:31:17 0° 318° (NW) 3,584 11.8 -15.4°
Reaches altitude 10° 19:34:01 10° 310° (NW) 2,620 11.2 -15.8°
Maximum altitude 19:39:29 37° 246° (WSW) 1,376 9.3 -16.6°
Drops below altitude 10° 19:44:49 10° 181° (S) 2,543 10.1 -17.4°
Sets 19:47:26 0° 173° (S) 3,466 10.7 -17.8°
